[[{"header":{"parameterUnit":"m.s-1","parameterCategory":1,"la1":30.2991,"la2":30.254,"lo1":-89.0895,"lo2":-89.0444,"dy":0.0017,"dx":0.0017,"nx":28,"ny":28,"refTime":"2024-05-23T09:00:00:Z","depth":0,"parameterNumber":2,"parameterNumberName":"U-component_of_WINDS"},"data":[0,0,0,0,0,0,0,0,0,0,0,0,0,0,0,0,0,0,0,0,0,0,0,0,0,0,0,0,0,0,0,0,0,0,0,0,0,0,0,0,0,0,0,0,0,0,0,0,0,0,0,0,0,0,0,0,0,0,0.1535,0.1536,0,0.1618,0.1618,0.1619,0.1609,0.1607,0.1606,0.1605,0.1696,0.17,0.1703,0,0,0,0,0,0,0,0,0,0,0,0,0,0.1373,0.1376,0.1535,0.1536,0.1537,0.1617,0.1619,0.162,0.1609,0.1607,0.1606,0.1604,0.1695,0.1699,0.1704,0,0,0,0,0,0,0,0,0,0,0,0,0,0.1449,0.1377,0.1535,0.1541,0.1543,0.1617,0.1619,0.162,0.1609,0.1607,0.1605,0.1603,0.1693,0.1699,0.1704,0.178,0,0,0.1721,0.1724,0,0,0,0,0,0,0,0,0.1444,0.1455,0.1539,0.1541,0.1543,0.1601,0.1595,0.1674,0.161,0.1584,0.1605,0.1602,0.1666,0.1674,0.1694,0.1784,0.1788,0.1722,0.1725,0.1727,0.1729,0,0,0,0,0,0,0,0.1439,0.1451,0.1568,0.154,0.1543,0.1542,0.155,0.161,0.1636,0.1586,0.1586,0.1595,0.1667,0.1689,0.1696,0.1789,0.1721,0.1726,0.173,0.1732,0.1945,0.1947,0,0,0,0,0,0,0.1431,0.1447,0.1565,0.157,0.1487,0.1546,0.1556,0.1584,0.1635,0.1641,0.1597,0.1594,0.168,0.169,0.1699,0.1792,0.1727,0.1733,0.1736,0.1943,0.1946,0.1948,0,0,0,0,0,0,0.1428,0.1442,0.1562,0.1508,0.1523,0.1551,0.1583,0.1587,0.1609,0.1643,0.1648,0.1614,0.1679,0.1692,0.1759,0.1795,0.1735,0.174,0.194,0.1944,0.1947,0.1976,0,0,0,0,0,0,0.1423,0.1441,0.1469,0.1509,0.1526,0.1619,0.1585,0.159,0.1618,0.1615,0.1661,0.1667,0.1678,0.1751,0.1765,0.1801,0.1744,0.1937,0.1942,0.1946,0.1972,0.198,0.1987,0,0,0,0,0,0.1418,0.1475,0.147,0.1484,0.1561,0.1621,0.1631,0.1642,0.162,0.165,0.1671,0.1665,0.1788,0.1758,0.1774,0.1812,0.1935,0.194,0.1945,0.1969,0.1979,0.1987,0,0,0,0,0,0,0.1441,0.148,0.1476,0.1547,0.158,0.1619,0.1656,0.1652,0.1693,0.169,0.1703,0.1714,0.1782,0.1804,0.177,0.1888,0.1859,0.1867,0.1871,0.1881,0.1888,0.1882,0.1749,0,0,0,0,0,0.1453,0.1496,0.153,0.159,0.1606,0.1628,0.1655,0.166,0.1696,0.171,0.1737,0.1774,0.1821,0.1852,0.1897,0.1974,0.1985,0.2009,0.2016,0.2022,0.203,0.2073,0.2084,0.1965,0.1965,0.1965,0,0,0.1482,0.1509,0.1536,0.1595,0.1621,0.1668,0.164,0.169,0.1725,0.1719,0.1784,0.1805,0.1847,0.192,0.1953,0.194,0.2065,0.2029,0.2033,0.2038,0.208,0.2091,0.2101,0.1969,0.1968,0.1968,0,0,0.1557,0.1581,0.1633,0.166,0.1699,0.1713,0.1725,0.1764,0.1777,0.1842,0.1838,0.1881,0.1961,0.1991,0.2017,0.2102,0.2098,0.2116,0.2156,0.2198,0.2207,0.2216,0.2247,0.2258,0.2124,0.2124,0.2124,0,0.1587,0.1655,0.1662,0.1712,0.1739,0.1732,0.1786,0.1812,0.1866,0.1885,0.1868,0.1969,0.1997,0.2077,0.2097,0.2118,0.2134,0.2112,0.2205,0.2214,0.2222,0.2252,0.2263,0.2126,0.2126,0.2125,0.2125,0,0.1691,0.1738,0.1776,0.1825,0.1856,0.1908,0.1925,0.1955,0.1957,0.1973,0.204,0.2073,0.2124,0.2143,0.2147,0.2224,0.2215,0.2201,0.2173,0.2235,0.2263,0.2275,0.2129,0.2128,0.2127,0.2127,0,0,0.1785,0.1835,0.1849,0.1871,0.1913,0.1951,0.2003,0.2051,0.2078,0.2114,0.216,0.2227,0.2214,0.2244,0.225,0.2287,0.2353,0.2269,0.2271,0.2285,0.2442,0.2452,0.2466,0.235,0.2352,0.2354,0.2439,0,0.1865,0.1955,0.1962,0.2044,0.2088,0.2082,0.2127,0.2159,0.2175,0.2216,0.2235,0.2283,0.2262,0.228,0.2315,0.2337,0.2385,0.2331,0.2394,0.2396,0.2385,0.248,0.2492,0.2571,0.245,0.2452,0.2453,0,0.197,0.2007,0.2093,0.2129,0.2148,0.2188,0.2233,0.2271,0.2308,0.2317,0.2349,0.235,0.2406,0.2373,0.2451,0.2414,0.244,0.2455,0.2458,0.2466,0.243,0.2492,0.2596,0.2608,0.247,0.2469,0.2468,0,0.2031,0.2103,0.2163,0.2182,0.2225,0.2254,0.2274,0.2308,0.2336,0.2375,0.2394,0.244,0.2466,0.2503,0.2517,0.2492,0.2594,0.2563,0.2605,0.2605,0.2629,0.2627,0.2739,0.2643,0.2642,0.2642,0.2642,0,0.2121,0.2174,0.2191,0.2229,0.2288,0.2297,0.2356,0.2374,0.2404,0.2447,0.2444,0.2484,0.25,0.2543,0.2555,0.2617,0.2629,0.2639,0.2642,0.264,0.2639,0.2659,0.2655,0.2645,0.2645,0.2644,0.2644,0,0.22,0.2213,0.2279,0.2313,0.2323,0.2366,0.2396,0.2433,0.2447,0.2501,0.2514,0.2538,0.2588,0.2605,0.2667,0.2675,0.2749,0.2746,0.2736,0.2737,0.2778,0.2775,0.2908,0.2927,0.2817,0.2818,0.2819,0,0.2257,0.2297,0.2335,0.2362,0.2382,0.2426,0.2454,0.2463,0.2493,0.2537,0.2569,0.2618,0.2659,0.274,0.2764,0.2811,0.2811,0.2854,0.2818,0.2815,0.2813,0.2811,0.2816,0.2862,0.2863,0.2864,0.2865,0,0.2357,0.2361,0.2401,0.2443,0.2476,0.251,0.2543,0.2566,0.2581,0.2615,0.2665,0.2696,0.2758,0.2807,0.2855,0.2877,0.2875,0.2875,0.2888,0.2887,0.288,0.2886,0.2756,0.2873,0.2872,0.2871,0.2871,0.2871,0.2428,0.2463,0.2495,0.2539,0.2565,0.2595,0.2632,0.265,0.2691,0.2741,0.2744,0.2799,0.2834,0.2898,0.2922,0.2966,0.2954,0.2972,0.2977,0.2982,0.2985,0.2871,0.2975,0.2975,0.2974,0.2974,0.2974,0,0.2529,0.2548,0.2589,0.2634,0.2669,0.266,0.2696,0.2726,0.2774,0.2806,0.2845,0.2903,0.295,0.2977,0.3026,0.3056,0.3056,0.3068,0.3067,0.3072,0.2993,0.2977,0.3068,0.3068,0.3068,0.3068,0.3067,0.3067,0.2585,0.2645,0.2653,0.2726,0.2745,0.2797,0.2819,0.2847,0.2873,0.2937,0.2976,0.2992,0.3023,0.3073,0.3117,0.3123,0.3142,0.3156,0.3162,0.3088,0.3078,0.3069,0.3055,0.316,0.316,0.3239,0.3239,0.324]},{"header":{"parameterUnit":"m.s-1","parameterCategory":1,"la1":30.2991,"la2":30.254,"lo1":-89.0895,"lo2":-89.0444,"dy":0.0017,"dx":0.0017,"nx":28,"ny":28,"refTime":"2024-05-23T09:00:00:Z","depth":0,"parameterNumber":3,"parameterNumberName":"V-component_of_WINDS"},"data":[0,0,0,0,0,0,0,0,0,0,0,0,0,0,0,0,0,0,0,0,0,0,0,0,0,0,0,0,0,0,0,0,0,0,0,0,0,0,0,0,0,0,0,0,0,0,0,0,0,0,0,0,0,0,0,0,0,0,5.6683,5.6684,0,5.6775,5.6776,5.6777,5.67,5.6697,5.6694,5.6691,5.678,5.6785,5.679,0,0,0,0,0,0,0,0,0,0,0,0,0,5.6435,5.644,5.6683,5.6684,5.6686,5.6775,5.6776,5.6777,5.6701,5.6697,5.6693,5.669,5.6778,5.6785,5.6791,0,0,0,0,0,0,0,0,0,0,0,0,0,5.6536,5.6442,5.6683,5.6658,5.6657,5.6775,5.6776,5.6778,5.6702,5.6697,5.6692,5.6688,5.6776,5.6784,5.6792,5.6937,0,0,5.6816,5.682,0,0,0,0,0,0,0,0,5.6531,5.6545,5.6661,5.666,5.6659,5.6721,5.6721,5.6831,5.6703,5.6685,5.6691,5.6685,5.6764,5.6773,5.68,5.6941,5.6945,5.6817,5.6822,5.6825,5.6828,0,0,0,0,0,0,0,5.6524,5.6541,5.6719,5.6662,5.6661,5.664,5.6649,5.6741,5.675,5.6686,5.6681,5.6693,5.6763,5.6793,5.6802,5.6946,5.6817,5.6824,5.6829,5.6832,5.7207,5.7212,0,0,0,0,0,0,5.652,5.6536,5.6716,5.6722,5.6582,5.6649,5.6659,5.6706,5.6749,5.6751,5.6697,5.6689,5.6781,5.6793,5.6805,5.6975,5.6825,5.6833,5.6837,5.7202,5.7208,5.7214,0,0,0,0,0,0,5.6515,5.6537,5.6713,5.6628,5.6648,5.6658,5.6712,5.671,5.6741,5.6757,5.6757,5.6727,5.6778,5.6793,5.6904,5.6978,5.6836,5.6844,5.7196,5.7204,5.7211,5.732,0,0,0,0,0,0,5.6508,5.6536,5.6593,5.6629,5.6653,5.6813,5.6716,5.6716,5.6755,5.6746,5.6785,5.6787,5.6776,5.6893,5.6912,5.6986,5.685,5.7189,5.72,5.7209,5.731,5.733,5.7348,0,0,0,0,0,5.65,5.6619,5.6596,5.6618,5.6725,5.6818,5.6831,5.6817,5.6762,5.6818,5.6828,5.6786,5.6967,5.6905,5.6926,5.7003,5.7185,5.7197,5.7208,5.7301,5.7326,5.7347,0,0,0,0,0,0,5.659,5.6624,5.6598,5.6734,5.6774,5.6805,5.6875,5.6844,5.69,5.6888,5.6867,5.6876,5.6993,5.7009,5.694,5.7144,5.7066,5.7083,5.713,5.7154,5.7173,5.7166,5.6857,0,0,0,0,0,5.6625,5.67,5.6725,5.6841,5.6863,5.6866,5.6906,5.6891,5.6931,5.6947,5.6965,5.7004,5.7069,5.7112,5.7173,5.7311,5.7317,5.7375,5.7394,5.7409,5.7424,5.7495,5.7521,5.7252,5.7252,5.7252,0,0,5.67,5.6727,5.6776,5.686,5.6889,5.6964,5.6881,5.6964,5.7019,5.6959,5.7065,5.708,5.7121,5.7246,5.7301,5.7263,5.7499,5.7424,5.7437,5.7442,5.751,5.7535,5.7558,5.726,5.7259,5.7257,0,0,5.6873,5.6903,5.7003,5.7033,5.7079,5.708,5.7104,5.7139,5.7147,5.7253,5.7209,5.7273,5.7386,5.7417,5.7447,5.763,5.7592,5.765,5.775,5.782,5.7841,5.786,5.7923,5.7946,5.7664,5.7665,5.7665,0,5.696,5.7073,5.7057,5.7144,5.7181,5.7131,5.723,5.726,5.7323,5.7349,5.7305,5.7445,5.7469,5.7599,5.7644,5.767,5.7695,5.7646,5.784,5.7858,5.7875,5.7935,5.7959,5.7671,5.767,5.767,5.7669,0,5.7176,5.7255,5.733,5.7392,5.7438,5.7531,5.7526,5.7574,5.7555,5.7559,5.7666,5.7693,5.7758,5.7788,5.777,5.7915,5.7889,5.7843,5.7764,5.7908,5.7964,5.7987,5.7681,5.7678,5.7676,5.7675,0,0,5.741,5.7462,5.7489,5.7516,5.7562,5.7621,5.771,5.7774,5.7815,5.7859,5.7931,5.8027,5.7984,5.8018,5.8003,5.8065,5.8205,5.8011,5.8011,5.8045,5.8364,5.8398,5.8425,5.8181,5.8185,5.8189,5.836,0,5.7584,5.7741,5.7728,5.7875,5.7947,5.7899,5.7976,5.8011,5.8017,5.8076,5.8082,5.815,5.8089,5.8109,5.8168,5.8176,5.8269,5.8163,5.8245,5.8249,5.8236,5.8454,5.8491,5.8651,5.8382,5.8385,5.8388,0,5.781,5.7863,5.8017,5.805,5.8079,5.8149,5.8205,5.8264,5.8301,5.8301,5.8339,5.8312,5.8398,5.8318,5.8435,5.8363,5.8396,5.8404,5.841,5.8417,5.8327,5.8465,5.8702,5.8726,5.8423,5.842,5.8418,0,5.7963,5.8073,5.8179,5.8203,5.8245,5.8294,5.8313,5.8346,5.8384,5.8433,5.8457,5.8515,5.8547,5.8591,5.8579,5.8522,5.8698,5.8617,5.8699,5.8699,5.8738,5.8735,5.8982,5.8761,5.876,5.876,5.8759,0,5.8159,5.8255,5.8248,5.8313,5.8418,5.8401,5.8505,5.8517,5.8546,5.8611,5.8573,5.8634,5.8616,5.8675,5.8667,5.8764,5.8778,5.8779,5.8775,5.8782,5.8782,5.8802,5.879,5.8766,5.8765,5.8763,5.8762,0,5.8348,5.8348,5.846,5.849,5.8499,5.8575,5.8599,5.8659,5.8661,5.8743,5.8762,5.8765,5.8833,5.8826,5.8902,5.8895,5.9015,5.8999,5.9004,5.8999,5.9081,5.9073,5.9349,5.9383,5.914,5.9143,5.9145,0,5.8473,5.8546,5.8583,5.8625,5.8647,5.8715,5.8754,5.8738,5.878,5.8827,5.8881,5.8945,5.8996,5.9106,5.9114,5.9171,5.9154,5.9247,5.9163,5.9166,5.9154,5.9149,5.9155,5.9264,5.9266,5.9269,5.927,0,5.8694,5.869,5.8749,5.8808,5.8856,5.8902,5.8942,5.8978,5.8966,5.9014,5.9084,5.9123,5.92,5.9264,5.9318,5.9334,5.93,5.9297,5.9318,5.9326,5.9325,5.9325,5.9048,5.9291,5.9289,5.9287,5.9286,5.9285,5.8854,5.8916,5.8951,5.9018,5.9047,5.9086,5.9143,5.9152,5.9211,5.9273,5.926,5.9337,5.9369,5.9438,5.946,5.9519,5.9485,5.9516,5.9524,5.9532,5.9541,5.9316,5.9528,5.9528,5.9527,5.9527,5.9526,0,5.9072,5.9092,5.9154,5.9212,5.9264,5.9228,5.9271,5.9315,5.9385,5.9419,5.9469,5.9547,5.9608,5.962,5.9678,5.9722,5.9708,5.9738,5.9734,5.9738,5.9569,5.9544,5.9748,5.9748,5.9748,5.9748,5.9748,5.9748,5.9192,5.9293,5.9293,5.9407,5.9426,5.9503,5.953,5.9564,5.9591,5.9681,5.9732,5.9739,5.9763,5.9822,5.9875,5.9877,5.9899,5.9935,5.993,5.9772,5.975,5.9729,5.9705,5.994,5.9941,6.0094,6.0096,6.0097]}]]